Regional Weather Roundup
Issued by NWS

Home | Current Version | Previous Version | Text Only | Print | Product List | Glossary On
Versions: 1 2 3 4 5 6 7 8 9 10 11 12 13 14 15 16 17 18 19 20 21 22 23 24 25 26 27 28 29 30 31 32 33 34 35 36 37 38 39 40 41 42 43 44 45 46 47 48 49 50
000
ASUS45 KABQ 270010
RWRNM
NEW MEXICO REGIONAL WEATHER ROUNDUP
NATIONAL WEATHER SERVICE ALBUQUERQUE NM
500 PM MST SUN FEB 26 2017

NOTE: "FAIR" MEANS FEW OR NO CLOUDS BELOW 12,000 FEET AGL WITH NO
       SIGNIFICANT WEATHER OR OBSTRUCTIONS TO VISION.

      THIS PRODUCT IS RELEASED AS TWO VERSIONS.  ONE VERSION NEAR
      THE TOP OF THE HOUR CONTAINING PRELIMINARY DATA FROM ALBUQUERQUE
      AND OTHER STATIONS.  A FINAL VERSION WITH ADDITIONAL DATA IS
      ISSUED ABOUT 10 MINUTES AFTER THE HOUR.

NMZ501-503-504-510>518-270100-
NORTHWEST PLATEAU/NORTHCENTRAL MOUNTAINS

CITY           SKY/WX    TMP DP  RH WIND       PRES   REMARKS
FARMINGTON     PTSUNNY   41   8  25 SW7       29.87R
6HR MIN TEMP:  38; 6HR MAX TEMP:  45;

LOS ALAMOS     CLOUDY    36  17  46 CALM      29.89S
SANTA FE       PTSUNNY   40  19  43 W6        29.88S
6HR MIN TEMP:  38; 6HR MAX TEMP:  45;

TAOS           FAIR      37   1  22 W16       29.85R WCI  28
ANGEL FIRE     MOCLDY    31   4  30 W16G22    29.82S WCI  20

$$
NMZ402-403-502-505>509-270100-
WESTCENTRAL MOUNTAINS/SOUTHWEST MOUNTAINS

CITY           SKY/WX    TMP DP  RH WIND       PRES   REMARKS
GALLUP         CLOUDY    39  21  48 SW13      29.90S WCI  31
6HR MIN TEMP:  35; 6HR MAX TEMP:  40; 6HR PCP: TRACE;

GRANTS         CLOUDY    40  20  44 W7G22     29.91S
SILVER CITY    FAIR      52  17  25 NW18G24   29.92R

$$
NMZ407-409-411-412-270100-
SOUTHERN DESERTS

CITY           SKY/WX    TMP DP  RH WIND       PRES   REMARKS
DEMING         FAIR      61  15  16 W18G24    29.88R
6HR MIN TEMP:  58; 6HR MAX TEMP:  64;

LAS CRUCES     FAIR      61  18  19 SW21      29.88R
HOLLOMAN AFB   CLOUDY    61  18  19 N21       29.88R
ALAMOGORDO     PTSUNNY   63  19  19 NW14G23   29.86R
T OR C         FAIR      53  24  32 W17       29.89R
6HR MIN TEMP:  51; 6HR MAX TEMP:  57;


$$
NMZ519>523-270100-
CENTRAL VALLEYS/CENTRAL HIGHLANDS

CITY           SKY/WX    TMP DP  RH WIND       PRES   REMARKS
ALBUQUERQUE    PTSUNNY   42  23  46 S7        29.89F
6HR MIN TEMP:  41; 6HR MAX TEMP:  45;

DOUBLE EAGLE   PTSUNNY   41  21  45 E9        29.89F
MORIARTY ARPT  PTSUNNY   43  23  45 W10       29.91S
6HR MIN TEMP:  42; 6HR MAX TEMP:  49;

CLINES CORNERS CLOUDY    35  20  54 NW15      29.89S WCI  25
6HR MIN TEMP:  35; 6HR MAX TEMP:  42;

BELEN          PTSUNNY   46  23  40 NE10      29.89F
6HR MIN TEMP:  42; 6HR MAX TEMP:  47;

SOCORRO        CLOUDY    52  20  29 SE5       29.86F
6HR MIN TEMP:  44; 6HR MAX TEMP:  53;


$$
NMZ524>526-539-540-270100-
SOUTHCENTRAL MOUNTAINS

CITY           SKY/WX    TMP DP  RH WIND       PRES   REMARKS
RUIDOSO        PTSUNNY   39  23  52 W13G25    29.95R WCI  32

$$
NMZ527>531-270100-
NORTHEAST HIGHLANDS/NORTHEAST PLAINS

CITY           SKY/WX    TMP DP  RH WIND       PRES   REMARKS
LAS VEGAS      FAIR      40  13  33 W9        29.83R WCI  34
6HR MIN TEMP:  39; 6HR MAX TEMP:  46;

RATON          FAIR      43  -1  16 W14       29.77S
6HR MIN TEMP:  41; 6HR MAX TEMP:  48;

CLAYTON        FAIR      52  13  21 W15       29.77R
6HR MIN TEMP:  48; 6HR MAX TEMP:  56;


$$
NMZ532>537-270100-
EASTCENTRAL PLAINS

CITY           SKY/WX    TMP DP  RH WIND       PRES   REMARKS
TUCUMCARI      FAIR      57  12  17 W26G35    29.80R
6HR MIN TEMP:  52; 6HR MAX TEMP:  60;

CANNON AFB     CLOUDY    54  19  25 W17G28    29.85S
6HR MIN TEMP:  53; 6HR MAX TEMP:  58;

CLOVIS AIRPORT MOCLDY    54  21  28 SW25G31   29.86R

$$
NMZ028-029-538-270100-
SOUTHEAST PLAINS

CITY           SKY/WX    TMP DP  RH WIND       PRES   REMARKS
ROSWELL        FAIR      64  14  14 NW17G26     N/A
6HR MIN TEMP:  59; 6HR MAX TEMP:  67;

ARTESIA        FAIR      64  18  16 W23       29.84R
CARLSBAD       FAIR      67  18  15 W13       29.81S
6HR MIN TEMP:  66; 6HR MAX TEMP:  72;

HOBBS          PTCLDY    66  16  14 SW23      29.83S


$$



USA.gov is the U.S. government's official web portal to all federal, state and local government web resources and services.